Regional Weather Roundup
Issued by NWS

Home | Current Version | Previous Version | Text Only | Print | Product List | Glossary Off
Versions: 1 2 3 4 5 6 7 8 9 10 11 12 13 14 15 16 17 18 19 20 21 22 23 24 25 26 27 28 29 30 31 32 33 34 35 36 37 38 39 40 41 42 43 44 45 46 47 48 49 50

000
ASUS43 KTOP 230008
RWRKS

WEATHER ROUNDUP FOR KANSAS
NATIONAL WEATHER SERVICE GOODLAND KS
700 PM CDT FRI AUG 22 2014

NOTE:  "FAIR" INDICATES FEW OR NO CLOUDS BELOW 12,000 FEET WITH NO
SIGNIFICANT WEATHER AND/OR OBSTRUCTIONS TO VISIBILITY.

KSZ001>006-013>018-027>032-041>047-230100-
NORTHWEST KANSAS

CITY           SKY/WX    TMP DP  RH WIND       PRES   REMARKS
GOODLAND       CLOUDY    70  61  73 N12       29.96F
6HR MIN TEMP:  67; 6HR MAX TEMP:  89; 6HR PCP: TRACE;

HAYS           CLOUDY    81  63  54 SW28G39   29.84S THUNDER
HILL CITY      MOSUNNY   88  69  53 E14       29.87F
6HR MIN TEMP:  88; 6HR MAX TEMP:  95;

RUSSELL        MOSUNNY   95  64  35 S13       29.83S HX  97
6HR MIN TEMP:  92; 6HR MAX TEMP: 100;

$$

KSZ061>065-074>080-084>089-230100-
SOUTHWEST KANSAS

CITY           SKY/WX    TMP DP  RH WIND       PRES   REMARKS
DODGE CITY     LGT RAIN  84  67  56 NE9       29.86F
6HR MIN TEMP:  80; 6HR MAX TEMP: 101; 6HR PCP:  0.03;

ELKHART          N/A     92  50  23 S15         N/A
GARDEN CITY    PTSUNNY   86  65  49 SE18      29.82F
6HR MIN TEMP:  75; 6HR MAX TEMP:  98; 6HR PCP:  0.21;

GREAT BEND     CLOUDY    91  64  40 SE15G22   29.84S
LIBERAL        MOSUNNY   86  55  35 SW25G37   29.89R
PRATT          MOSUNNY   95  59  30 S12       29.86F
$$

KSZ066>073-081>083-090>101-230100-
SOUTHEAST KANSAS

CITY           SKY/WX    TMP DP  RH WIND       PRES   REMARKS
CHANUTE        MOSUNNY   85  67  54 S8        29.89F
6HR MIN TEMP:  82; 6HR MAX TEMP: 100;

COFFEYVILLE    MOSUNNY   94  73  50 S12       29.89F HX 103
6HR MIN TEMP:  94; 6HR MAX TEMP: 100;

HUTCHINSON     CLOUDY    77  67  71 E8        29.87F
6HR MIN TEMP:  75; 6HR MAX TEMP: 103; 6HR PCP:  0.10;

MEDICINE LODGE   N/A    100  60  26 S16       29.83R HX 100
NEWTON         PTSUNNY   95  64  36 S15G23    29.91S HX  97
PARSONS        MOSUNNY   90  68  48 CALM      29.91F
6HR MIN TEMP:  88; 6HR MAX TEMP: 100;

WICHITA INTL   MOSUNNY   96  67  38 SE16G26   29.86R HX 100
6HR MIN TEMP:  96; 6HR MAX TEMP: 102;

WICHITA JABRA  MOSUNNY   94  67  41 S12G23    29.87S HX  97
6HR MIN TEMP:  94; 6HR MAX TEMP:  99;

WICHITA MCCONL MOSUNNY   95  67  39 SE16G23   29.87F HX  98
WINFIELD       SUNNY     95  68  41 SE14      29.88F HX  99
6HR MIN TEMP:  95; 6HR MAX TEMP: 100;

$$

KSZ007>012-019>026-033>040-048>060-102>105-230100-
NORTHEAST KANSAS

CITY           SKY/WX    TMP DP  RH WIND       PRES   REMARKS
CONCORDIA      MOSUNNY   86  73  65 E7        29.86F
6HR MIN TEMP:  78; 6HR MAX TEMP:  90; 6HR PCP:  0.05;

EMPORIA        CLOUDY    76  66  71 SE7       29.87F
6HR MIN TEMP:  74; 6HR MAX TEMP:  86; 6HR PCP: TRACE;

LAWRENCE       CLOUDY    91  71  51 SW9       29.88F HX  97
6HR MIN TEMP:  91; 6HR MAX TEMP: 102;

MANHATTAN      CLOUDY    86  70  58 S6        29.86F
6HR MIN TEMP:  86; 6HR MAX TEMP:  97;

MARYSVILLE     PTSUNNY   82  75  78 NE3       29.88F
OLATHE IND     CLOUDY    79  70  74 SE15G23   29.93R
6HR MIN TEMP:  79; 6HR MAX TEMP:  96;

OLATHE EXE     CLOUDY    80  68  66 S15       29.92R
6HR MIN TEMP:  79; 6HR MAX TEMP:  92;

SALINA         MOSUNNY   95  69  42 SE17      29.83S HX 100
6HR MIN TEMP:  86; 6HR MAX TEMP:  99;

TOPEKA BILLARD CLOUDY    89  71  55 S8        29.87F HX  95
6HR MIN TEMP:  88; 6HR MAX TEMP:  94; 6HR PCP: TRACE;

TOPEKA FORBES  CLOUDY    86  67  52 S9        29.88F
6HR MIN TEMP:  86; 6HR MAX TEMP:  95;

$$


USA.gov is the U.S. government's official web portal to all federal, state and local government web resources and services.